Location: Courcelles
(49.2596°N, 1.7419°E)
Time: 23:42:30
(UTC+00:00)

ATLAS 5 CENTAUR R/B - Pass Details

Date: 17 November 2025
Orbit: 373 x 1090 km, 63.3° (Epoch: 04 December)

Event Time Altitude Azimuth Distance (km) Brightness Sun altitude
Rises 16:51:51 0° 315° (NW) 2,711 5.2 -7.2°
Reaches altitude 10° 16:53:52 10° 313° (NW) 1,912 4.4 -7.5°
Maximum altitude 16:58:09 66° 232° (SW) 741 2.2 -8.2°
Drops below altitude 10° 17:03:30 10° 150° (SSE) 2,367 4.4 -9.0°
Sets 17:06:13 0° 148° (SSE) 3,420 5.2 -9.4°
